Regional Weather Roundup
Issued by NWS

Home | Current Version | Previous Version | Graphics & Text | Print | Product List | Glossary On
Versions: 1 2 3 4 5 6 7 8 9 10 11 12 13 14 15 16 17 18 19 20 21 22 23 24 25 26 27 28 29 30 31 32 33 34 35 36 37 38 39 40 41 42 43 44 45 46 47 48 49 50
000
ASUS45 KBOU 260107
RWRCO

WEATHER ROUNDUP FOR COLORADO
NATIONAL WEATHER SERVICE DENVER/BOULDER CO
700 PM MDT SAT APR 25 2015

NOTE: "FAIR" INDICATES FEW OR NO CLOUDS BELOW 12000 FEET WITH NO
SIGNIFICANT WEATHER AND/OR OBSTRUCTIONS TO VISIBILITY.

COZ001>005-013-030-031-260200-
...NORTHWEST COLORADO...

CITY           SKY/WX    TMP DP  RH WIND       PRES   REMARKS
CRAIG          CLOUDY    53  31  42 E7        29.75F
HAYDEN         CLOUDY    50  30  46 N7        29.76F
MEEKER         CLOUDY    52  32  46 SW12      29.77R
MOUNT WERNER   NOT AVBL
STEAMBOAT SPGS CLOUDY    50  31  49 CALM      29.77S
WALDEN         MOCLDY    45  27  49 E10       29.82R
$$

COZ006>008-011-260200-
...WEST CENTRAL VALLEYS...

CITY           SKY/WX    TMP DP  RH WIND       PRES   REMARKS
GRAND JUNCTION LGT RAIN  47  45  93 NW5       29.77R
MONTROSE       LGT RAIN  47  39  74 E3        29.79R
EAGLE          CLOUDY    54  34  47 W9        29.78S
RIFLE          CLOUDY    45  41  86 W14       29.77R
DELTA          CLOUDY    53  44  73 MISG      29.77
NUCLA          CLOUDY    46  41  81 E10       29.80S
$$

COZ017>023-064>068-260200-
...SOUTHWEST COLORADO...

CITY           SKY/WX    TMP DP  RH WIND       PRES   REMARKS
DURANGO        CLOUDY    49  37  63 NE7       29.80F
CORTEZ         PTSUNNY   55  35  47 S23G29    29.77S
PAGOSA SPRINGS CLOUDY    50  31  49 S7        29.86R
TELLURIDE      CLOUDY    34  34 100 CALM      29.89F
WOLF CREEK PAS NOT AVBL
$$

COZ009-010-012-014-032>034-037-058>063-260200-
...CENTRAL COLORADO...

CITY           SKY/WX    TMP DP  RH WIND       PRES   REMARKS
ASPEN          CLOUDY    44  36  73 W3        29.80F
BUENA VISTA    CLOUDY    50  29  44 SW6       29.80R
COPPER MTN       N/A     32  28  86 CALM      29.96S
BERTHOUD PASS  HVY SNOW  23  16  74 E12       29.98F VSB<1/4 WCI  12
COTTONWOOD PAS CLOUDY    45  28  53 CALM      29.88R
GUNNISON       MOCLDY    50  30  46 N10       29.81F
KREMMLING      CLOUDY    50  34  53 CALM      29.82R
LEADVILLE      CLOUDY    37  27  67 CALM      29.87F
MONARCH PASS   MOCLDY    32  25  74 S7        30.05S WCI  26
SALIDA         CLOUDY    55  28  36 CALM      29.85S
SUNLIGHT       LGT SNOW  34  32  93 CALM      29.93S
WILKERSON PASS SNOW      30  30 100 NW3       29.97S VSB<1/4
$$

COZ069>075-260200-
...SAN LUIS VALLEY/SANGRE DE CRISTO MOUNTAINS...

CITY           SKY/WX    TMP DP  RH WIND       PRES   REMARKS
ALAMOSA        CLEAR     55  23  28 SW18G25   29.79R
LA VETA PASS   PTCLDY    41  25  52 S13G21    29.91S
SAGUACHE       CLOUDY    52  27  37 SE12      29.78S
$$

COZ035-036-038>040-260200-
...NORTHERN COLORADO FRONT RANGE...

CITY           SKY/WX    TMP DP  RH WIND       PRES   REMARKS
DENVER INTL AP CLOUDY    59  31  34 SW13      29.72R
DMNS CITY PARK   N/A     59  29  31 S3G17     29.71F
AURORA         MOCLDY    56  33  42 SW7       29.73S
FRONT RANGE AP MOCLDY    61  36  39 SW10      29.73S
ERIE MUNI ARPT CLOUDY    60  34  38 E5        29.72S
BOULDER MUN AP CLOUDY    59  34  38 N7        29.73R
CENTENNIAL     CLOUDY    54  38  54 S3        29.74S
BROOMFIELD     MOCLDY   N/A N/A N/A NE7       29.74R
FORT COLLINS   CLOUDY    59  37  44 SE3       29.74S
LONGMONT       CLOUDY    61  37  41 N6        29.74S
$$

COZ041-046-047-076>085-087-088-260200-
...PIKES PEAK/PALMER DIVIDE AND SOUTHERN FOOTHILLS...

CITY           SKY/WX    TMP DP  RH WIND       PRES   REMARKS
COLO. SPRINGS  MOCLDY    59  29  31 NW3       29.74S
A. F. ACADEMY  CLOUDY    56  29  34 SW2       29.75R
ELLICOTT       MOCLDY   N/A N/A N/A S10       29.73R
FALCON         MOCLDY    56  28  34 CALM      29.78R
FORT CARSON    MOCLDY    62  32  32 NW5       29.71S
LIMON          CLOUDY    62  24  23 SE3       29.72R
MONUMENT HILL  CLOUDY    50  32  50 W12G17    29.78R
TRINIDAD       CLOUDY    63  26  24 SW9       29.69S
$$

COZ042>045-048>051-090-091-260200-
...NORTHEAST COLORADO...

CITY           SKY/WX    TMP DP  RH WIND       PRES   REMARKS
GREELEY ARPT   CLOUDY    55  43  62 NE15      29.74R
AKRON          PTCLDY    61  38  42 SE13      29.70R
BURLINGTON     PTCLDY    66  39  37 E12       29.71R
WRAY           PTCLDY    68  42  38 SE10      29.70R
STERLING       CLOUDY    59  46  63 NE14      29.69R
HOLYOKE        PTCLDY    64  43  45 E10       29.71S
FORT MORGAN    CLOUDY    51  42  71 NW32G43   29.74R
$$

COZ086-089-092>099-260200-
...SOUTHEAST COLORADO...

CITY           SKY/WX    TMP DP  RH WIND       PRES   REMARKS
PUEBLO         MOCLDY    69  27  20 SE15      29.64S
LA JUNTA       CLOUDY    71  27  19 SE22G28   29.63R
LAMAR          PTCLDY    70  31  23 E13       29.64R
SPRINGFIELD      N/A     65  30  27 SE14      29.68R
$$


USA.gov is the U.S. government's official web portal to all federal, state and local government web resources and services.